Location: Lake Almanor
(40.2485°N, 121.1442°W)
Time: 08:43:52
(UTC-08:00)

STARLINK-1094 - Pass Details

Date: 31 January 2020
Orbit: 348 x 351 km, 53.0° (Epoch: 18 February)

Event Time Altitude Azimuth Distance (km) Brightness Sun altitude
Rises 18:14:14 0° 314° (NW) 2,164 7.1 -10.4°
Reaches altitude 10° 18:16:20 10° 323° (NW) 1,318 5.9 -10.8°
Maximum altitude 18:19:06 37° 34° (NE) 564 3.3 -11.3°
Enters shadow 18:20:43 20° 92° (E) 895 4.1 -11.6°
